Terug naar catalogus

STARLINK-6125

ActiefCommunicatieVLEO
NORAD 57114·PAYLOAD·🇺🇸 United States

Gelanceerd Jun 23, 2023 vanaf Cape Canaveral Space Force Station

Loading…

Volgende Passages (komende 24 uur)

TLE

VersSource: CelesTrak SupGP

Epoch: Sep 15, 2026, 03:00 UTC

1 57114C 23090P   26258.12548611  .00005391  00000+0  19524-3 0  2582
2 57114  42.9997 291.5532 0001306 262.1084 187.4828 15.27576869    15

Volg STARLINK-6125 in realtime met AllMySat

Download on the App Store